Home > Time Zones > World Clock > Weather > U.S.A. > Hilo > Past weeks

Flag for U.S.A. Weather past 2 weeks in Hilo, Hawaii, U.S.A.

Now
83 °F

Mostly cloudy.


Feels Like: 89 °F
Forecast: 73 / 87 °F
Wind: 10 mph from Southeast

Location: Hilo International Airport

Current Time: Jul 28, 2015 at 10:50:17 AM

Latest Report: Jul 28, 2015 at 9:53 AM


Visibility: 10 mi

Pressure: 29.99 "Hg

Humidity: 72%

Dew point: 73 °F

Location of HiloLocation

Historic Weather in Hilo — Graph

°F

Hilo temperature yesterday

Maximum temperature yesterday: 85 °F (at 10:53 AM)
Minimum temperature yesterday: 72 °F (at 6:19 AM)
Average temperature yesterday: 77 °F

Past Weeks' High & Low Weather Summary

 TemperatureHumidityPressure
High88 °F (Jul 16, 11:53 AM)100% (Jul 15, 4:09 AM)30.07 "Hg (Jul 15, 4:09 AM)
Low70 °F (Jul 23, 3:53 AM)48% (Jul 25, 1:53 PM)29.89 "Hg (Jul 20, 2:53 PM)
Average77 °F82%29.97 "Hg
* Reported Jul 13 8:05 AM — Jul 28 8:53 AM, Hilo, Weather by CustomWeather, © 2015

Note: Actual official high and low records may vary slightly from our data, if they occured in-between our weather recording intervals... More about our weather records

Advertising

Hilo weather history for previous 24 hours

 ConditionsComfort  
Time TempWeatherWind HumidityBarometerVisibility
8:53 AM
Tue, Jul 28
82 °FBroken clouds.6 mph74%29.99 "Hg10 mi
7:53 AM80 °FScattered clouds.7 mph76%29.99 "Hg10 mi
6:53 AM74 °FScattered clouds.7 mph82%29.98 "Hg10 mi
6:31 AM73 °FPartly sunny.6 mph83%29.98 "Hg10 mi
5:53 AM73 °FPassing clouds.7 mph84%29.96 "Hg10 mi
4:53 AM72 °FPartly cloudy.6 mph91%29.95 "Hg10 mi
3:53 AM72 °FMostly cloudy.10 mph91%29.95 "Hg10 mi
2:53 AM73 °FMostly cloudy.7 mph84%29.95 "Hg10 mi
1:53 AM72 °FPassing clouds.5 mph91%29.96 "Hg10 mi
12:53 AM73 °FClear.6 mph90%29.98 "Hg10 mi
11:53 PM
Mon, Jul 27
74 °FPassing clouds.6 mph94%29.99 "Hg10 mi
11:23 PM75 °FPartly cloudy.6 mph94%30.00 "Hg10 mi
10:53 PM77 °FLight rain. Mostly cloudy.6 mph85%30.00 "Hg3 mi
10:46 PM75 °FHeavy rain. Fog.6 mph94%30.01 "Hg2 mi
10:03 PM75 °FPartly cloudy.5 mph94%30.00 "Hg10 mi
9:11 PM75 °FPassing clouds.3 mph94%29.99 "Hg10 mi
9:03 PM75 °FPassing clouds.3 mph94%29.99 "Hg10 mi
7:53 PM77 °FPassing clouds.No wind90%29.96 "Hg10 mi
6:53 PM79 °FPartly sunny.3 mph84%29.94 "Hg10 mi
6:39 PM81 °FMore clouds than sun.No wind79%29.95 "Hg10 mi
6:15 PM81 °FMostly cloudy.No wind79%29.94 "Hg10 mi
5:53 PM80 °FCloudy.3 mph79%29.93 "Hg10 mi
5:38 PM81 °FCloudy.5 mph79%29.93 "Hg10 mi
5:14 PM79 °FCloudy.5 mph84%29.93 "Hg10 mi
4:53 PM79 °FCloudy.3 mph88%29.93 "Hg10 mi
3:53 PM80 °FMostly cloudy.6 mph79%29.93 "Hg10 mi
3:21 PM81 °FMostly cloudy.No wind79%29.94 "Hg10 mi
2:53 PM84 °FBroken clouds.6 mph72%29.93 "Hg10 mi
1:53 PM84 °FScattered clouds.3 mph72%29.95 "Hg10 mi
1:11 PM81 °FRain. Fog.14 mph74%29.97 "Hg6 mi
12:53 PM82 °FBroken clouds.12 mph70%29.97 "Hg10 mi
11:53 AM82 °FPartly sunny.12 mph77%29.98 "Hg10 mi
10:53 AM85 °FBroken clouds.7 mph70%29.98 "Hg10 mi
Weather by CustomWeather, © 2015

See weather overviewHow to use our weather pages